User: anonymous   Login
Location: Ostrava
(49.8330°N, 18.2830°E)
Time: 19:04:20
(UTC+01:00)
Language:

Cosmos 1766 - Orbit

View from above orbital plane
View from above orbital plane
View from above satellite
View from above satellite

Ground track
Ground track

The orbit data is extracted from the following two-line orbital elements,

1 16881U 86055A   17058.17084633  .00000195  00000-0  10066-4 0  9993
2 16881  82.5059 131.3117 0016894 115.8033 244.4941 15.09959047664835
Epoch (UTC): 27 February 2017 04:06:01
Eccentricity: 0.0016894
inclination: 82.5059°
perigee height: 524 km
apogee height: 548 km
right ascension of ascending node: 131.3117°
argument of perigee: 115.8033°
revolutions per day: 15.09959047
mean anomaly at epoch: 244.4941°
orbit number at epoch: 66483

The dashed part of the orbit path shows where the satellite is in the earth's shadow,  

DLR